QPF
0.00 0.00 0.00 0.00 0.00 0.00 0.00 0.00 0.00 0.00 0.00 0.00 0.00 0.00 0.00 0.00 0.00 0.00 0.00 0.00 0.00 0.00 0.00 0.00 0.00 0.00 0.00 0.00 0.00 0.00 0.00 0.00 0.00 0.00 0.00 0.00 0.00 0.00 0.00 0.00 0.00 0.00
0.00 0.00 0.00 0.00 0.00 0.00 0.00 0.00 0.00 0.00 0.00 0.00 0.00 0.00 0.00 0.00 0.00 0.00 0.00 0.00 0.00 0.00 0.00 0.00 0.00 0.00 0.00 0.00 0.00 0.00 0.00 0.00 0.00 0.00 0.00 0.00 0.00 0.00 0.00 0.00 0.00 0.00
0.00 0.00 0.00 0.00 0.00 0.00 0.00 0.00 0.00 0.00 0.00 0.00 0.00 0.00 0.00 0.00 0.00 0.00 0.00 0.00 0.00 0.00 0.00 0.00 0.00 0.00 0.00 0.00 0.00 0.00 0.00 0.00 0.00 0.00 0.00 0.00 0.00 0.00 0.00 0.00 0.00 0.00
0.00 0.00 0.00 0.00 0.00 0.00 0.00 0.00 0.00 0.00 0.00 0.00 0.00 0.00 0.00 0.00 0.00 0.00 0.00 0.00 0.00 0.00 0.00 0.00 0.00 0.00 0.00 0.00 0.00 0.00 0.00 0.00 0.00 0.00 0.00 0.00 0.00 0.00 0.00 0.00 0.00 0.00
0.00 0.00 0.00 0.00 0.00 0.00 0.00 0.00 0.00 0.00 0.00 0.00 0.00 0.00 0.00 0.00 0.00 0.00 0.00 0.00 0.00 0.00 0.00 0.00 0.00 0.00 0.00 0.00 0.00 0.00 0.00 0.00 0.00 0.00 0.00 0.00 0.00 0.00 0.00 0.00 0.00 0.00
0.00 0.00 0.00 0.00 0.00 0.00 0.00 0.00 0.00 0.00 0.00 0.00 0.00 0.00 0.00 0.00 0.00 0.00 0.00 0.00 0.00 0.00 0.00 0.00 0.00 0.00 0.00 0.00 0.00 0.00 0.00 0.00 0.00 0.00 0.00 0.00 0.00 0.00 0.00 0.00 0.00 0.00
0.00 0.00 0.00 0.00 0.00 0.00 0.00 0.00 0.00 0.00 0.00 0.00 0.00 0.00 0.00 0.00 0.00 0.00 0.00 0.00 0.00 0.00 0.00 0.00 0.00 0.00 0.00 0.00 0.00 0.00 0.00 0.00 0.00 0.00 0.00 0.00 0.00 0.00 0.00 0.00 0.00 0.00
0.00 0.00 0.00 0.00 0.00 0.00 0.00 0.00 0.00 0.00 0.00 0.00 0.00 0.00 0.00 0.00 0.00 0.00 0.00 0.00 0.00 0.00 0.00 0.00 0.00 0.00 0.00 0.00 0.00 0.00 0.00 0.00 0.00 0.00 0.00 0.00 0.00 0.00 0.00 0.00 0.00 0.00
0.00 0.00 0.00 0.00 0.00 0.00 0.00 0.00 0.00 0.00 0.00 0.00 0.00 0.00 0.00 0.00 0.00 0.00 0.00 0.00 0.00 0.00 0.00 0.00 0.00 0.00 0.00 0.00 0.00 0.00 0.00 0.00 0.00 0.00 0.00 0.00 0.00 0.00 0.00 0.00 0.00 0.00
0.00 0.00 0.00 0.00 0.00 0.00 0.00 0.00 0.00 0.00 0.00 0.00 0.00 0.00 0.00 0.00 0.00 0.00 0.00 0.00 0.00 0.00 0.00 0.00 0.00 0.00 0.00 0.00 0.00 0.00 0.00 0.00 0.00 0.00 0.00 0.00 0.00 0.00 0.00 0.00 0.00 0.00
0.00 0.00 0.00 0.00 0.00 0.00 0.00 0.00 0.00 0.00 0.00 0.00 0.00 0.00 0.00 0.00 0.00 0.00 0.00 0.00 0.00 0.00 0.00 0.00 0.00 0.00 0.00 0.00 0.00 0.00 0.00 0.00 0.00 0.00 0.00 0.00 0.00 0.00 0.00 0.00 0.00 0.00
0.00 0.00 0.00 0.00 0.00 0.00 0.00 0.00 0.00 0.00 0.00 0.00 0.00 0.00 0.00 0.00 0.00 0.00 0.00 0.00 0.00 0.00 0.00 0.00 0.00 0.00 0.00 0.00 0.00 0.00 0.00 0.00 0.00 0.00 0.00 0.00 0.00 0.00 0.00 0.00 0.00 0.00
0.00 0.00 0.00 0.00 0.00 0.00 0.00 0.00 0.00 0.00 0.00 0.00 0.00 0.00 0.00 0.00 0.00 0.00 0.00 0.00 0.00 0.00 0.00 0.00 0.00 0.00 0.00 0.00 0.00 0.00 0.00 0.00 0.00 0.00 0.00 0.00 0.00 0.00 0.00 0.00 0.00 0.00
0.00 0.00 0.00 0.00 0.00 0.00 0.00 0.00 0.00 0.00 0.00 0.00 0.00 0.00 0.00 0.00 0.00 0.00 0.00 0.00 0.00 0.00 0.00 0.00 0.00 0.00 0.00 0.00 0.00 0.00 0.00 0.00 0.00 0.00 0.00 0.00 0.00 0.00 0.00 0.00 0.00 0.00
0.00 0.00 0.00 0.03 0.03 0.00 0.00 0.00 0.00 0.00 0.00 0.00 0.00 0.00 0.00 0.00 0.00 0.00 0.00 0.00 0.00 0.00 0.00 0.00 0.00 0.00 0.00 0.00 0.00 0.00 0.00 0.00 0.00 0.00 0.00 0.00 0.00 0.00 0.00 0.00 0.00 0.00
0.00 0.00 0.01 0.00 0.09 0.08 0.01 0.00 0.00 0.00 0.00 0.00 0.00 0.00 0.00 0.00 0.00 0.00 0.00 0.00 0.00 0.00 0.00 0.00 0.00 0.00 0.00 0.00 0.00 0.00 0.00 0.00 0.00 0.00 0.00 0.00 0.00 0.00 0.00 0.00 0.00 0.00
0.27 0.53 0.41 0.35 0.65 0.66 0.33 0.05 0.00 0.00 0.00 0.00 0.00 0.00 0.00 0.00 0.00 0.00 0.00 0.00 0.00 0.00 0.00 0.00 0.00 0.00 0.00 0.00 0.00 0.00 0.00 0.00 0.00 0.00 0.00 0.00 0.00 0.00 0.00 0.00 0.00 0.00
0.32 0.41 0.50 0.37 0.25 0.23 0.14 0.14 0.04 0.01 0.00 0.00 0.00 0.00 0.00 0.00 0.00 0.00 0.00 0.00 0.00 0.00 0.00 0.00 0.00 0.00 0.00 0.00 0.00 0.00 0.00 0.00 0.00 0.00 0.00 0.00 0.00 0.00 0.00 0.00 0.00 0.00
0.30 0.19 0.14 0.21 0.09 0.13 0.25 0.03 0.01 0.00 0.00 0.00 0.00 0.00 0.00 0.00 0.00 0.00 0.00 0.00 0.00 0.00 0.00 0.00 0.00 0.00 0.00 0.00 0.00 0.00 0.00 0.00 0.00 0.00 0.00 0.00 0.00 0.00 0.00 0.00 0.00 0.00
0.00 0.01 0.02 0.20 0.31 0.20 0.19 0.12 0.08 0.05 0.01 0.00 0.00 0.00 0.00 0.00 0.00 0.00 0.00 0.00 0.00 0.00 0.00 0.00 0.00 0.00 0.00 0.00 0.00 0.00 0.00 0.00 0.00 0.00 0.00 0.00 0.00 0.00 0.00 0.00 0.00 0.00
0.03 0.11 0.25 0.16 0.09 0.11 0.10 0.03 0.01 0.00 0.00 0.00 0.00 0.00 0.00 0.00 0.00 0.00 0.00 0.00 0.00 0.00 0.00 0.00 0.00 0.00 0.00 0.00 0.00 0.00 0.00 0.00 0.00 0.00 0.00 0.00 0.00 0.00 0.00 0.00 0.00 0.00
0.04 0.11 0.08 0.08 0.12 0.05 0.05 0.02 0.01 0.00 0.00 0.00 0.00 0.00 0.00 0.00 0.00 0.00 0.00 0.00 0.00 0.00 0.00 0.00 0.00 0.00 0.00 0.00 0.00 0.00 0.00 0.00 0.00 0.00 0.00 0.00 0.00 0.00 0.00 0.00 0.00 0.00
0.00 0.03 0.03 0.04 0.08 0.02 0.05 0.04 0.01 0.00 0.00 0.00 0.01 0.00 0.00 0.00 0.00 0.00 0.00 0.00 0.00 0.00 0.00 0.00 0.00 0.00 0.00 0.00 0.00 0.00 0.00 0.00 0.00 0.00 0.00 0.00 0.00 0.00 0.00 0.00 0.00 0.00
0.19 0.24 0.09 0.16 0.09 0.02 0.02 0.02 0.03 0.00 0.00 0.00 0.00 0.00 0.00 0.00 0.00 0.00 0.00 0.00 0.00 0.00 0.00 0.00 0.00 0.00 0.00 0.00 0.00 0.00 0.00 0.00 0.00 0.00 0.00 0.00 0.00 0.00 0.00 0.00 0.00 0.00
0.20 0.09 0.22 0.21 0.16 0.25 0.02 0.01 0.01 0.00 0.01 0.00 0.00 0.00 0.00 0.00 0.00 0.00 0.00 0.00 0.00 0.00 0.00 0.00 0.00 0.00 0.00 0.00 0.00 0.00 0.00 0.00 0.00 0.00 0.00 0.00 0.00 0.00 0.00 0.00 0.00 0.00
0.12 0.07 0.12 0.10 0.13 0.10 0.17 0.10 0.00 0.00 0.00 0.00 0.01 0.00 0.00 0.00 0.00 0.00 0.00 0.00 0.00 0.00 0.00 0.00 0.00 0.00 0.00 0.00 0.00 0.00 0.00 0.00 0.00 0.00 0.00 0.00 0.00 0.00 0.00 0.00 0.00 0.00
MSLP
1015.90 1016.10 1016.34 1016.70 1016.86 1017.06 1017.26 1017.50 1017.70 1017.70 1017.74 1017.90 1017.98 1018.06 1018.10 1018.10 1018.38 1018.46 1018.66 1018.78 1018.90 1019.02 1019.14 1019.18 1019.18 1019.18 1019.30 1019.42 1019.54 1019.58 1019.66 1019.78 1019.82 1019.94 1019.98 1020.02 1020.10 1020.10 1020.10 1020.14 1020.10 1020.10
1015.82 1015.94 1016.14 1016.42 1016.70 1016.98 1017.14 1017.18 1017.30 1017.46 1017.58 1017.74 1017.82 1017.90 1018.10 1018.22 1018.30 1018.42 1018.54 1018.66 1018.78 1018.94 1019.02 1019.06 1019.10 1019.14 1019.26 1019.34 1019.50 1019.62 1019.70 1019.82 1019.82 1020.02 1020.02 1020.10 1020.22 1020.22 1020.18 1020.18 1020.14 1020.14
1015.74 1015.90 1016.06 1016.22 1016.38 1016.62 1016.82 1017.14 1017.22 1017.30 1017.34 1017.50 1017.74 1017.90 1017.94 1018.14 1018.26 1018.46 1018.50 1018.58 1018.70 1018.86 1019.02 1019.06 1019.06 1019.18 1019.26 1019.34 1019.46 1019.58 1019.66 1019.74 1019.78 1020.10 1020.10 1020.14 1020.22 1020.18 1020.18 1020.22 1020.14 1020.10
1015.66 1015.66 1015.78 1015.94 1016.14 1016.30 1016.66 1016.98 1017.18 1017.26 1017.38 1017.50 1017.58 1017.70 1017.78 1017.98 1018.14 1018.30 1018.42 1018.58 1018.70 1018.74 1018.78 1018.86 1018.94 1019.06 1019.18 1019.26 1019.42 1019.46 1019.54 1019.62 1019.74 1019.90 1019.94 1020.10 1020.14 1020.18 1020.14 1020.18 1020.14 1020.14
1015.42 1015.62 1015.74 1015.82 1015.98 1016.18 1016.46 1016.66 1016.86 1017.06 1017.10 1017.18 1017.46 1017.62 1017.70 1017.86 1018.06 1018.22 1018.38 1018.54 1018.58 1018.66 1018.78 1018.82 1018.94 1018.98 1019.02 1019.14 1019.30 1019.30 1019.38 1019.50 1019.58 1019.74 1019.82 1019.86 1019.94 1020.02 1020.02 1020.06 1020.10 1020.06
1015.22 1015.30 1015.46 1015.66 1015.86 1016.06 1016.34 1016.38 1016.54 1016.78 1016.98 1017.22 1017.22 1017.46 1017.54 1017.70 1017.86 1018.06 1018.22 1018.34 1018.54 1018.66 1018.78 1018.90 1018.94 1018.94 1019.06 1019.14 1019.26 1019.30 1019.38 1019.42 1019.46 1019.58 1019.58 1019.62 1019.70 1019.82 1019.86 1019.86 1019.86 1019.90
1014.94 1015.14 1015.34 1015.54 1015.78 1015.90 1015.98 1016.14 1016.34 1016.54 1016.70 1016.78 1017.18 1017.26 1017.42 1017.58 1017.74 1017.90 1018.10 1018.22 1018.42 1018.62 1018.74 1018.82 1018.90 1018.94 1019.06 1019.22 1019.30 1019.30 1019.38 1019.46 1019.42 1019.42 1019.42 1019.46 1019.58 1019.62 1019.66 1019.66 1019.62 1019.66
1014.58 1014.74 1014.98 1015.30 1015.46 1015.70 1015.78 1015.94 1016.14 1016.34 1016.54 1016.86 1016.90 1017.14 1017.26 1017.38 1017.58 1017.82 1017.98 1018.22 1018.38 1018.54 1018.74 1018.90 1019.02 1019.14 1019.26 1019.38 1019.34 1019.34 1019.34 1019.42 1019.46 1019.46 1019.46 1019.50 1019.58 1019.54 1019.50 1019.50 1019.46 1019.46
1014.26 1014.54 1014.82 1015.02 1015.18 1015.34 1015.50 1015.66 1015.94 1016.18 1016.42 1016.54 1016.82 1017.06 1017.26 1017.26 1017.46 1017.70 1017.94 1018.18 1018.34 1018.54 1018.74 1018.86 1019.02 1019.10 1019.26 1019.30 1019.30 1019.42 1019.42 1019.46 1019.50 1019.54 1019.54 1019.54 1019.58 1019.54 1019.50 1019.46 1019.42 1019.26
1014.06 1014.26 1014.62 1014.86 1015.02 1015.14 1015.26 1015.50 1015.78 1016.02 1016.30 1016.42 1016.66 1016.98 1017.18 1017.38 1017.46 1017.62 1017.86 1018.06 1018.26 1018.50 1018.66 1018.78 1018.94 1019.06 1019.10 1019.18 1019.22 1019.34 1019.42 1019.50 1019.54 1019.58 1019.62 1019.66 1019.66 1019.58 1019.50 1019.46 1019.34 1019.22
1013.82 1014.10 1014.34 1014.62 1014.74 1014.98 1015.10 1015.38 1015.62 1015.90 1016.18 1016.30 1016.62 1016.94 1017.14 1017.34 1017.54 1017.62 1017.78 1018.02 1018.18 1018.34 1018.58 1018.74 1018.82 1018.94 1018.98 1019.14 1019.26 1019.38 1019.42 1019.46 1019.50 1019.50 1019.50 1019.50 1019.54 1019.54 1019.46 1019.38 1019.22 1019.06
1013.54 1013.86 1014.06 1014.18 1014.54 1014.90 1015.14 1015.34 1015.54 1015.78 1016.06 1016.30 1016.46 1016.74 1017.14 1017.30 1017.42 1017.66 1017.74 1017.90 1018.06 1018.30 1018.50 1018.66 1018.82 1018.94 1019.02 1019.10 1019.18 1019.26 1019.38 1019.42 1019.46 1019.46 1019.46 1019.42 1019.38 1019.38 1019.34 1019.30 1019.22 1019.02
1013.06 1013.18 1013.38 1013.78 1014.14 1014.62 1015.14 1015.46 1015.50 1015.70 1015.94 1016.22 1016.54 1016.70 1017.10 1017.38 1017.54 1017.58 1017.66 1017.78 1018.06 1018.30 1018.50 1018.66 1018.78 1018.90 1019.02 1019.10 1019.22 1019.26 1019.30 1019.34 1019.34 1019.34 1019.34 1019.30 1019.26 1019.18 1019.14 1019.10 1019.02 1018.94
1012.62 1012.62 1012.98 1013.42 1013.90 1014.34 1014.86 1015.26 1015.42 1015.58 1015.86 1016.18 1016.46 1016.70 1017.10 1017.34 1017.50 1017.54 1017.70 1017.82 1017.98 1018.18 1018.38 1018.62 1018.82 1019.02 1019.14 1019.18 1019.22 1019.26 1019.30 1019.34 1019.34 1019.34 1019.26 1019.22 1019.10 1019.02 1018.98 1018.90 1018.86 1018.78
1013.74 1013.70 1013.46 1013.46 1013.78 1014.02 1014.30 1014.86 1015.22 1015.46 1015.82 1016.10 1016.30 1016.58 1016.94 1017.18 1017.42 1017.58 1017.74 1017.86 1018.02 1018.18 1018.42 1018.70 1018.82 1018.94 1019.06 1019.14 1019.22 1019.26 1019.34 1019.34 1019.34 1019.30 1019.22 1019.14 1019.06 1018.94 1018.86 1018.74 1018.66 1018.62
1013.14 1013.66 1013.98 1013.86 1013.70 1013.70 1013.94 1014.42 1015.06 1015.46 1015.78 1015.98 1016.18 1016.42 1016.78 1017.10 1017.34 1017.50 1017.58 1017.78 1018.06 1018.34 1018.54 1018.62 1018.74 1018.90 1019.02 1019.10 1019.22 1019.30 1019.34 1019.38 1019.38 1019.34 1019.22 1019.10 1018.98 1018.86 1018.74 1018.66 1018.54 1018.42
1012.74 1013.14 1013.62 1014.06 1014.22 1014.22 1014.78 1014.98 1015.18 1015.58 1015.82 1015.98 1016.22 1016.46 1016.74 1017.06 1017.34 1017.46 1017.62 1017.82 1017.98 1018.22 1018.42 1018.62 1018.78 1018.86 1018.94 1019.02 1019.06 1019.10 1019.18 1019.26 1019.30 1019.26 1019.22 1019.10 1019.02 1018.86 1018.70 1018.54 1018.38 1018.30
1012.22 1012.54 1012.90 1013.34 1013.74 1013.54 1013.94 1014.70 1015.22 1015.50 1015.78 1016.06 1016.26 1016.46 1016.82 1017.14 1017.30 1017.50 1017.70 1017.78 1017.86 1018.06 1018.26 1018.50 1018.70 1018.74 1018.74 1018.74 1018.82 1018.90 1018.94 1019.02 1019.10 1019.10 1019.02 1018.94 1018.82 1018.66 1018.50 1018.34 1018.18 1018.06
1012.02 1012.26 1012.42 1012.74 1013.10 1013.42 1013.70 1014.38 1014.90 1015.22 1015.70 1015.98 1015.98 1016.38 1016.86 1017.06 1017.34 1017.54 1017.70 1017.78 1017.82 1017.94 1018.18 1018.42 1018.46 1018.54 1018.50 1018.54 1018.58 1018.62 1018.66 1018.70 1018.82 1018.82 1018.74 1018.62 1018.50 1018.38 1018.22 1018.06 1017.90 1017.74
1011.74 1011.90 1012.14 1012.54 1012.94 1013.26 1013.66 1014.22 1014.74 1015.18 1015.50 1015.74 1016.02 1016.46 1016.74 1017.14 1017.38 1017.50 1017.70 1017.74 1017.82 1017.90 1017.98 1018.14 1018.22 1018.34 1018.38 1018.34 1018.38 1018.38 1018.38 1018.42 1018.46 1018.46 1018.38 1018.30 1018.22 1018.06 1017.90 1017.70 1017.54 1017.38
1011.66 1011.70 1012.06 1012.58 1012.86 1012.94 1013.30 1014.02 1014.46 1014.94 1015.14 1015.22 1015.42 1015.90 1016.38 1016.78 1017.14 1017.34 1017.50 1017.62 1017.78 1017.78 1017.74 1017.90 1018.10 1018.14 1018.22 1018.26 1018.30 1018.26 1018.18 1018.18 1018.22 1018.18 1018.10 1017.98 1017.86 1017.70 1017.54 1017.34 1017.18 1017.02
1011.46 1011.74 1011.94 1012.06 1012.18 1012.46 1012.86 1013.50 1014.18 1014.54 1014.74 1015.14 1015.54 1016.10 1016.46 1016.74 1017.02 1017.10 1017.26 1017.42 1017.54 1017.58 1017.66 1017.82 1017.98 1018.10 1018.26 1018.34 1018.26 1018.14 1018.02 1018.06 1018.02 1017.90 1017.78 1017.66 1017.46 1017.30 1017.06 1016.90 1016.78 1016.70
1011.34 1011.66 1011.78 1011.86 1011.94 1012.30 1012.94 1013.58 1014.06 1014.54 1014.70 1015.06 1015.38 1015.94 1016.22 1016.46 1016.58 1016.86 1017.02 1017.14 1017.26 1017.46 1017.62 1017.78 1017.94 1018.02 1018.14 1018.18 1018.14 1018.02 1017.94 1017.90 1017.78 1017.62 1017.50 1017.30 1017.06 1016.86 1016.66 1016.50 1016.42 1016.34
1011.18 1011.66 1011.98 1011.98 1012.06 1012.26 1012.82 1013.34 1013.86 1014.38 1014.74 1015.02 1015.18 1015.90 1016.06 1016.18 1016.38 1016.58 1016.86 1016.98 1017.10 1017.34 1017.66 1017.78 1017.82 1017.94 1018.06 1018.10 1018.02 1017.94 1017.86 1017.74 1017.58 1017.42 1017.14 1016.98 1016.62 1016.38 1016.30 1016.10 1016.02 1015.90
1011.14 1011.38 1011.46 1011.50 1011.74 1012.10 1012.42 1013.02 1013.66 1014.18 1014.74 1015.02 1015.26 1015.58 1015.66 1016.14 1016.38 1016.38 1016.70 1017.02 1017.18 1017.38 1017.66 1017.70 1017.86 1017.94 1018.02 1017.98 1017.90 1017.78 1017.66 1017.50 1017.34 1017.14 1016.86 1016.54 1016.34 1016.02 1015.90 1015.82 1015.66 1015.54
1011.18 1011.46 1011.70 1011.82 1012.42 1013.02 1013.02 1012.98 1013.58 1014.22 1014.66 1015.06 1015.38 1015.50 1015.62 1016.06 1016.34 1016.50 1016.50 1016.74 1017.42 1017.58 1017.50 1017.70 1017.82 1017.90 1017.90 1017.82 1017.74 1017.54 1017.42 1017.26 1017.10 1016.98 1016.58 1016.18 1015.98 1015.74 1015.42 1015.26 1015.26 1015.10
Thickness
5592 5590 5589 5587 5586 5585 5584 5583 5582 5582 5582 5581 5581 5581 5581 5580 5579 5578 5578 5577 5578 5577 5578 5578 5579 5580 5580 5580 5580 5579 5579 5578 5578 5579 5579 5580 5580 5581 5582 5583 5584 5584
5590 5589 5588 5586 5584 5583 5582 5582 5581 5581 5581 5580 5579 5579 5578 5577 5577 5577 5576 5576 5575 5575 5574 5575 5575 5576 5576 5576 5576 5576 5575 5575 5575 5575 5574 5575 5575 5576 5577 5577 5579 5579
5587 5587 5586 5585 5584 5583 5581 5580 5580 5580 5580 5578 5577 5577 5576 5576 5575 5574 5574 5574 5573 5573 5573 5573 5573 5573 5573 5573 5572 5572 5572 5572 5572 5572 5571 5571 5571 5571 5572 5572 5574 5574
5585 5585 5585 5584 5583 5582 5580 5578 5577 5577 5577 5576 5576 5575 5574 5574 5573 5572 5572 5571 5571 5571 5571 5571 5571 5570 5570 5569 5569 5569 5569 5569 5569 5569 5569 5569 5568 5568 5568 5569 5569 5570
5583 5583 5583 5582 5581 5580 5578 5577 5576 5575 5575 5574 5574 5573 5573 5571 5570 5569 5569 5568 5568 5568 5568 5568 5567 5568 5567 5566 5566 5566 5566 5566 5566 5566 5566 5566 5566 5566 5566 5566 5566 5566
5582 5580 5581 5579 5578 5577 5576 5575 5574 5574 5573 5572 5571 5571 5570 5570 5569 5568 5566 5566 5566 5565 5565 5564 5564 5564 5563 5563 5562 5562 5562 5563 5562 5562 5562 5563 5563 5563 5563 5564 5564 5563
5581 5580 5579 5578 5576 5576 5574 5574 5573 5572 5571 5570 5569 5569 5567 5567 5566 5565 5565 5563 5562 5561 5560 5560 5560 5560 5559 5559 5558 5558 5558 5558 5558 5559 5559 5559 5559 5559 5559 5560 5561 5561
5582 5580 5579 5577 5575 5574 5573 5572 5571 5570 5568 5567 5566 5565 5565 5565 5564 5562 5561 5560 5559 5557 5557 5556 5555 5555 5554 5554 5554 5554 5554 5553 5554 5554 5554 5554 5554 5554 5555 5555 5556 5557
5581 5579 5578 5576 5574 5573 5572 5571 5570 5568 5566 5565 5564 5562 5562 5561 5561 5559 5558 5556 5555 5554 5553 5552 5551 5550 5550 5549 5549 5549 5549 5548 5549 5548 5548 5548 5548 5549 5550 5550 5551 5552
5580 5578 5576 5574 5572 5571 5570 5569 5567 5566 5564 5563 5561 5559 5558 5557 5557 5555 5554 5553 5551 5550 5549 5548 5547 5546 5545 5545 5544 5544 5543 5543 5543 5542 5543 5543 5543 5543 5544 5544 5546 5547
5578 5577 5574 5573 5571 5569 5567 5565 5564 5562 5561 5559 5557 5555 5554 5552 5552 5551 5550 5549 5547 5546 5544 5543 5542 5541 5540 5539 5539 5537 5537 5537 5537 5537 5537 5537 5537 5538 5539 5539 5540 5541
5576 5575 5573 5571 5569 5566 5562 5561 5560 5558 5557 5555 5554 5551 5549 5548 5547 5546 5546 5544 5543 5541 5540 5538 5537 5536 5535 5534 5533 5532 5532 5531 5531 5531 5531 5532 5532 5532 5533 5533 5534 5536
5577 5575 5573 5570 5567 5563 5559 5555 5555 5554 5552 5550 5549 5547 5544 5542 5541 5541 5540 5540 5538 5536 5534 5533 5532 5531 5529 5528 5528 5527 5527 5526 5526 5526 5526 5527 5527 5528 5528 5528 5529 5529
5573 5573 5571 5567 5564 5560 5555 5551 5549 5548 5546 5545 5544 5542 5539 5537 5536 5535 5535 5534 5533 5532 5529 5528 5526 5525 5524 5523 5522 5522 5521 5521 5520 5521 5521 5522 5522 5523 5524 5524 5524 5524
5564 5562 5562 5562 5561 5558 5554 5548 5544 5542 5541 5539 5538 5537 5535 5532 5531 5530 5529 5528 5527 5526 5524 5523 5521 5520 5519 5518 5517 5516 5516 5515 5515 5516 5516 5517 5518 5519 5519 5519 5520 5520
5559 5556 5555 5555 5555 5554 5550 5542 5536 5535 5534 5533 5532 5532 5530 5528 5526 5525 5524 5523 5521 5519 5518 5517 5516 5515 5514 5513 5512 5511 5510 5510 5510 5510 5511 5511 5513 5514 5514 5514 5514 5514
5557 5554 5551 5548 5547 5548 5544 5536 5529 5528 5527 5526 5526 5525 5523 5522 5521 5520 5519 5518 5515 5514 5513 5511 5510 5509 5509 5508 5507 5506 5506 5505 5505 5505 5506 5506 5507 5507 5508 5509 5509 5509
5553 5552 5549 5545 5544 5544 5542 5534 5526 5523 5520 5518 5519 5519 5517 5515 5514 5513 5512 5511 5510 5509 5507 5506 5505 5504 5504 5503 5503 5502 5501 5501 5501 5500 5501 5501 5501 5502 5503 5503 5504 5504
5547 5547 5546 5543 5540 5539 5537 5530 5524 5519 5515 5514 5514 5513 5511 5509 5508 5506 5505 5504 5504 5503 5502 5501 5500 5499 5499 5498 5498 5498 5497 5497 5497 5496 5497 5497 5497 5497 5498 5498 5498 5499
5542 5542 5540 5537 5533 5532 5529 5523 5518 5514 5511 5510 5510 5508 5505 5503 5501 5500 5499 5498 5498 5497 5497 5496 5494 5493 5493 5493 5493 5493 5492 5493 5492 5492 5493 5493 5493 5493 5493 5493 5493 5493
5535 5535 5532 5529 5526 5526 5524 5519 5514 5511 5509 5508 5507 5505 5501 5498 5496 5495 5494 5493 5492 5492 5492 5491 5489 5488 5487 5487 5487 5488 5488 5488 5488 5488 5489 5488 5489 5488 5488 5489 5488 5488
5527 5526 5525 5523 5522 5521 5518 5514 5509 5507 5507 5506 5503 5499 5496 5494 5492 5490 5490 5488 5488 5488 5487 5485 5484 5483 5482 5482 5481 5482 5482 5483 5483 5484 5484 5484 5484 5484 5484 5484 5483 5482
5520 5517 5516 5516 5516 5514 5510 5506 5503 5502 5501 5500 5496 5492 5490 5489 5488 5486 5485 5484 5484 5483 5481 5480 5478 5477 5476 5476 5476 5476 5476 5477 5478 5479 5479 5479 5480 5479 5479 5479 5478 5475
5511 5509 5508 5509 5510 5508 5504 5500 5497 5494 5493 5493 5491 5487 5486 5485 5484 5482 5480 5478 5479 5478 5476 5475 5473 5472 5470 5470 5469 5469 5470 5471 5472 5473 5474 5474 5474 5475 5473 5473 5472 5470
5503 5502 5503 5504 5503 5502 5499 5495 5491 5487 5485 5485 5483 5481 5480 5479 5478 5477 5475 5474 5473 5472 5470 5469 5467 5466 5464 5463 5463 5464 5463 5464 5465 5466 5468 5468 5468 5469 5469 5467 5465 5464
5492 5491 5492 5493 5492 5492 5491 5488 5485 5481 5479 5477 5476 5474 5474 5472 5471 5472 5471 5469 5466 5465 5464 5463 5461 5460 5459 5458 5458 5458 5457 5458 5458 5458 5460 5462 5462 5462 5462 5461 5459 5456